YMA7123 ENBO-ENGM

Flight info

Callsign YMA7123
Flight time N/A
Altitude 32000
Route ENBO DISMU VFL TORMO BELGU ENGM
Aircraft B738/M-L/2000

Departure

Time 2026-04-28 08:16
Airport Bodø Airport (ENBO)

Arrival

Time N/A
Airport Oslo-Gardermoen International Airport (ENGM)
Time Latitude Longitude Altitude Speed Heading
2026-04-28 08:06 67.27183 14.36985 51 ft 2 kts 292°
2026-04-28 08:06 67.27181 14.37023 51 ft 2 kts 258°
2026-04-28 08:07 67.27185 14.37055 51 ft 0 kts 236°
2026-04-28 08:07 67.27189 14.37068 51 ft 1 kts 232°
2026-04-28 08:07 67.27190 14.37070 51 ft 0 kts 232°
2026-04-28 08:11 67.27181 14.37055 51 ft 4 kts 195°
2026-04-28 08:11 67.27140 14.37148 52 ft 9 kts 127°
2026-04-28 08:12 67.27118 14.37307 55 ft 10 kts 88°
2026-04-28 08:12 67.27138 14.37559 56 ft 11 kts 76°
2026-04-28 08:12 67.27148 14.37685 57 ft 9 kts 79°
2026-04-28 08:12 67.27159 14.37851 58 ft 9 kts 80°
2026-04-28 08:13 67.27162 14.38014 58 ft 9 kts 91°
2026-04-28 08:13 67.27161 14.38182 58 ft 9 kts 90°
2026-04-28 08:13 67.27161 14.38270 58 ft 3 kts 97°
2026-04-28 08:13 67.27149 14.38334 58 ft 5 kts 128°
2026-04-28 08:14 67.27097 14.38384 58 ft 8 kts 186°
2026-04-28 08:14 67.27071 14.38314 58 ft 0 kts 256°
2026-04-28 08:15 67.27069 14.38294 58 ft 11 kts 257°
2026-04-28 08:15 67.26990 14.37364 59 ft 97 kts 257°
2026-04-28 08:15 67.26793 14.34976 52 ft 172 kts 258°
2026-04-28 08:16 67.26612 14.32003 1058 ft 152 kts 262°
2026-04-28 08:16 67.26406 14.29126 1572 ft 180 kts 259°
2026-04-28 08:16 67.26146 14.25703 2158 ft 213 kts 259°
2026-04-28 08:16 67.25824 14.21683 2848 ft 243 kts 253°
2026-04-28 08:17 67.24925 14.17915 3526 ft 260 kts 220°
2026-04-28 08:17 67.23405 14.15348 4240 ft 263 kts 213°
2026-04-28 08:17 67.21836 14.12856 4860 ft 268 kts 212°
2026-04-28 08:17 67.20255 14.10382 5532 ft 271 kts 213°
2026-04-28 08:18 67.18639 14.07832 6221 ft 275 kts 213°
2026-04-28 08:18 67.17006 14.05263 6879 ft 279 kts 213°
2026-04-28 08:18 67.15359 14.02650 7555 ft 286 kts 215°
2026-04-28 08:18 67.13655 13.99892 8256 ft 292 kts 214°
2026-04-28 08:19 67.11935 13.97139 8956 ft 296 kts 214°
2026-04-28 08:19 67.10123 13.94698 9628 ft 303 kts 197°
2026-04-28 08:19 67.08075 13.93363 10326 ft 311 kts 196°
2026-04-28 08:19 67.05973 13.92014 10999 ft 315 kts 197°
2026-04-28 08:20 67.03857 13.90630 11667 ft 318 kts 197°
2026-04-28 08:20 67.01736 13.89261 12342 ft 321 kts 197°
2026-04-28 08:20 66.99554 13.87783 13019 ft 326 kts 198°
2026-04-28 08:20 66.97361 13.86278 13678 ft 331 kts 198°
2026-04-28 08:21 66.95143 13.84764 14357 ft 334 kts 198°
2026-04-28 08:21 66.92938 13.83217 15023 ft 337 kts 199°
2026-04-28 08:21 66.90681 13.81564 15705 ft 340 kts 200°
2026-04-28 08:21 66.88452 13.79500 16378 ft 343 kts 205°
2026-04-28 08:22 66.86236 13.77227 17037 ft 347 kts 206°
2026-04-28 08:22 66.84019 13.74941 17688 ft 350 kts 205°
2026-04-28 08:22 66.81735 13.72584 18353 ft 354 kts 206°
2026-04-28 08:22 66.79919 13.70709 18875 ft 357 kts 206°
2026-04-28 08:23 66.77138 13.67868 19675 ft 363 kts 206°
2026-04-28 08:23 66.71582 13.62195 21243 ft 370 kts 207°
2026-04-28 08:23 66.69125 13.59890 21909 ft 384 kts 193°
2026-04-28 08:23 66.66465 13.60018 22645 ft 393 kts 165°
2026-04-28 08:24 66.63999 13.62905 23368 ft 393 kts 138°
2026-04-28 08:24 66.62152 13.67696 24078 ft 391 kts 125°
2026-04-28 08:24 66.59727 13.74629 24959 ft 399 kts 127°
2026-04-28 08:24 66.55505 13.85850 26384 ft 408 kts 129°
2026-04-28 08:25 66.53207 13.89994 27032 ft 422 kts 155°
2026-04-28 08:25 66.50377 13.91652 27727 ft 424 kts 182°
2026-04-28 08:25 66.47533 13.90540 28430 ft 411 kts 208°
2026-04-28 08:26 66.42545 13.83973 29708 ft 409 kts 215°
2026-04-28 08:26 66.39993 13.80863 30315 ft 414 kts 214°
2026-04-28 08:26 66.37470 13.77993 30903 ft 416 kts 212°
2026-04-28 08:26 66.32440 13.72659 31992 ft 419 kts 210°
2026-04-28 08:27 66.29713 13.69956 32556 ft 420 kts 208°
2026-04-28 08:27 66.26981 13.67344 33135 ft 419 kts 208°
2026-04-28 08:27 66.24281 13.64771 33697 ft 417 kts 209°
2026-04-28 08:27 66.21588 13.62216 34212 ft 416 kts 208°
2026-04-28 08:28 66.18887 13.59661 34686 ft 415 kts 208°
2026-04-28 08:28 66.16225 13.57177 35088 ft 413 kts 207°
2026-04-28 08:28 66.13550 13.54726 35483 ft 409 kts 207°
2026-04-28 08:28 66.10915 13.52274 35855 ft 406 kts 207°
2026-04-28 08:29 66.08276 13.49832 36238 ft 402 kts 207°
2026-04-28 08:29 66.05700 13.47498 36588 ft 396 kts 206°
2026-04-28 08:29 66.03129 13.45130 36940 ft 390 kts 206°
2026-04-28 08:29 66.00639 13.42814 37298 ft 383 kts 206°
2026-04-28 08:30 65.98181 13.40535 37625 ft 375 kts 206°
2026-04-28 08:30 65.95793 13.38365 37949 ft 366 kts 205°
2026-04-28 08:30 65.93445 13.36264 38272 ft 355 kts 206°
2026-04-28 08:30 65.91174 13.34152 38549 ft 343 kts 206°
2026-04-28 08:31 65.88967 13.32087 38575 ft 342 kts 209°
2026-04-28 08:31 65.86826 13.29378 38260 ft 350 kts 220°
2026-04-28 08:31 65.85017 13.26981 38082 ft 362 kts 200°
2026-04-28 08:31 65.83250 13.25740 37868 ft 365 kts 195°
2026-04-28 08:32 65.80788 13.24374 37815 ft 356 kts 200°
2026-04-28 08:32 65.78459 13.22780 37619 ft 347 kts 201°
2026-04-28 08:32 65.76185 13.21008 37480 ft 345 kts 206°
2026-04-28 08:32 65.75340 13.20244 37308 ft 348 kts 208°